Oakland, CA

3:44 AM PDT on October 16, 2019 (GMT -0700)
Metro Oakland International

Weather History for KOAK - August, 2019

Change the Weather History Date:

Tuesday, August 6, 2019

  Actual Average Record
Temperature  
Mean Temperature 69 °F 63 °F  
Max Temperature 77 °F 71 °F 88 °F (1983)
Min Temperature 60 °F 56 °F 49 °F (1950)
Degree Days  
Heating Degree Days 0 2  
Month to date heating degree days 0 13  
Since 1 June heating degree days 47 199  
Since 1 July heating degree days 15 96  
Cooling Degree Days 4 0  
Month to date cooling degree days 15 0  
Year to date cooling degree days 141 52  
Since 1 June cooling degree days 132 36  
Growing Degree Days 18 (Base 50)    
Moisture  
Dew Point 56 °F    
Average Humidity 74    
Maximum Humidity 90    
Minimum Humidity 57    
Precipitation  
Precipitation 0.00 in 0.00 in 0.01 in (2005)
Month to date precipitation 0.00 0.00  
Year to date precipitation 15.71 13.23  
Sea Level Pressure  
Sea Level Pressure 29.93 in    
Wind  
Wind Speed 9 mph (WNW)    
Max Wind Speed 22 mph    
Max Gust Speed 24 mph    
Visibility 10 miles    
Events      
T = Trace of Precipitation, MM = Missing Value Source: NWS Daily Summary

Daily Weather History Graph

Daily Weather History Graph

Search for Another Location

Airport or City:

Astronomy

Aug. 06, 2019 Rise Set
Actual Time 6:16 AM PDT 8:12 PM PDT
Civil Twilight 5:47 AM PDT 8:40 PM PDT
Nautical Twilight 5:13 AM PDT 9:15 PM PDT
Astronomical Twilight 4:35 AM PDT 9:52 PM PDT
Moon 12:40 PM PDT (8/6) No Moon Set
Length of Visible Light 14h 52m
Length of Day
13h 55m
Waxing Crescent, 40% of the Moon is Illuminated
Aug 6
Waxing Crescent
Aug 7
First Quarter
Aug 15
Full
Aug 23
Last Quarter
Aug 30
New

Hourly Weather History & Observations

Time (PDT) Temp. Dew Point Humidity Pressure Visibility Wind Dir Wind Speed Gust Speed Precip Events Conditions
12:53 AM 60.1 °F 55.0 °F 83% 29.94 in 10.0 mi North 4.6 mph - N/A   Partly Cloudy
1:48 AM 60.8 °F 57.2 °F 88% 29.93 in 10.0 mi NNW 4.6 mph - N/A   Mostly Cloudy
1:53 AM 61.0 °F 57.0 °F 87% 29.94 in 10.0 mi NNW 4.6 mph - N/A   Overcast
2:53 AM 61.0 °F 55.9 °F 83% 29.93 in 10.0 mi NNW 6.9 mph - N/A   Overcast
3:53 AM 61.0 °F 55.9 °F 83% 29.93 in 10.0 mi NNE 5.8 mph - N/A   Overcast
4:53 AM 62.1 °F 55.9 °F 80% 29.93 in 10.0 mi Calm Calm - N/A   Overcast
5:53 AM 62.1 °F 55.9 °F 80% 29.93 in 10.0 mi SSW 3.5 mph - N/A   Overcast
6:53 AM 62.1 °F 57.0 °F 84% 29.94 in 5.0 mi Calm Calm - N/A   Haze
7:53 AM 63.0 °F 57.0 °F 81% 29.94 in 7.0 mi Calm Calm - N/A   Overcast
8:53 AM 64.0 °F 57.0 °F 78% 29.95 in 10.0 mi SSW 5.8 mph - N/A   Overcast
9:53 AM 64.9 °F 57.0 °F 75% 29.95 in 10.0 mi WSW 4.6 mph - N/A   Scattered Clouds
10:53 AM 66.9 °F 57.9 °F 73% 29.95 in 10.0 mi West 5.8 mph - N/A   Partly Cloudy
11:53 AM 72.0 °F 57.9 °F 61% 29.95 in 10.0 mi WSW 8.1 mph - N/A   Partly Cloudy
12:53 PM 75.0 °F 59.0 °F 57% 29.94 in 10.0 mi WNW 10.4 mph - N/A   Partly Cloudy
1:53 PM 73.9 °F 57.9 °F 57% 29.92 in 10.0 mi WNW 16.1 mph - N/A   Partly Cloudy
2:53 PM 72.0 °F 57.0 °F 59% 29.91 in 10.0 mi WNW 18.4 mph - N/A   Partly Cloudy
3:53 PM 72.0 °F 57.0 °F 59% 29.90 in 10.0 mi WNW 17.3 mph - N/A   Partly Cloudy
4:53 PM 70.0 °F 55.9 °F 61% 29.89 in 10.0 mi WNW 18.4 mph - N/A   Scattered Clouds
5:53 PM 68.0 °F 55.9 °F 65% 29.90 in 10.0 mi WNW 15.0 mph - N/A   Mostly Cloudy
6:53 PM 66.0 °F 55.0 °F 68% 29.90 in 10.0 mi West 12.7 mph - N/A   Mostly Cloudy
7:53 PM 63.0 °F 55.0 °F 75% 29.91 in 10.0 mi West 9.2 mph - N/A   Scattered Clouds
8:53 PM 62.1 °F 55.0 °F 78% 29.93 in 10.0 mi West 8.1 mph - N/A   Partly Cloudy
9:53 PM 61.0 °F 55.0 °F 81% 29.94 in 10.0 mi West 9.2 mph - N/A   Mostly Cloudy
10:53 PM 61.0 °F 55.0 °F 81% 29.94 in 10.0 mi North 5.8 mph - N/A   Mostly Cloudy
11:53 PM 61.0 °F 55.0 °F 81% 29.95 in 10.0 mi WSW 11.5 mph - N/A   Overcast